Wind from 180 at 10 knots

Air temperature 16.0° C
Visibility: greater than 5.4 NM
Dewpoint 13.0° C

Last reported at 2014-Apr-20 10:20 UTC.
Time now 2014-Apr-20 11:49 UTC

Location: N 39°15' E 009°03'.
View on Google Maps.

See reports from other nearby stations

Tides Stations Pressure Air Temp Water Temp Dewpoint Dewpoint depression Visibility Wind Speed Wind Dir Waves Ship positions

  
sailing weather and tide predictions

Elmas weather

date/time (UTC)wind fromknots sea level pressurealtimeterstation pressurevisibilityair tempwater tempwave heightnotes
2014-Apr-20 10:20 180 10 5.416.0
2014-Apr-20 09:50 170 10 5.418.0
2014-Apr-20 09:20 210 4 5.419.0
2014-Apr-20 08:50 250 4 5.417.0
2014-Apr-20 08:20 5.418.0
2014-Apr-20 07:50 360 6 5.415.0
2014-Apr-20 07:20 360 6 13.0
2014-Apr-20 06:50 360 4 12.0
2014-Apr-20 06:20 340 6 12.0
2014-Apr-20 05:50 330 5 11.0
2014-Apr-20 05:20 300 5 11.0
2014-Apr-20 04:50 320 5 10.0
2014-Apr-20 04:20 300 4 11.0
2014-Apr-20 03:50 290 4 11.0
2014-Apr-20 03:20 330 4 11.0
2014-Apr-20 02:50 350 4 11.0
2014-Apr-20 02:20 330 5 12.0
2014-Apr-20 01:50 12.0
2014-Apr-20 01:20 330 6 12.0
2014-Apr-20 00:50 290 6 12.0
2014-Apr-20 00:20 310 6 12.0
2014-Apr-19 23:50 310 5 12.0
2014-Apr-19 23:20 350 7 13.0
2014-Apr-19 22:50 360 8 13.0
2014-Apr-19 22:20 350 7 13.0
2014-Apr-19 21:50 350 8 13.0
2014-Apr-19 21:20 350 9 13.0
2014-Apr-19 20:50 350 9 13.0
2014-Apr-19 20:20 340 10 14.0
2014-Apr-19 19:50 330 8 15.0
2014-Apr-19 19:20 320 8 16.0
2014-Apr-19 18:20 350 8 17.0
2014-Apr-19 17:50 340 11 18.0
2014-Apr-19 17:20 330 11 20.0
2014-Apr-19 16:50 310 10 21.0
2014-Apr-19 16:20 280 10 22.0
2014-Apr-19 15:50 330 9 22.0
2014-Apr-19 15:20 170 7 22.0
2014-Apr-19 14:50 160 6 21.0
2014-Apr-19 14:20 150 9 21.0
2014-Apr-19 13:50 24.0
2014-Apr-19 13:20 290 8 24.0
2014-Apr-19 12:50 5.424.0
2014-Apr-19 12:20 130 6 5.423.0
2014-Apr-19 11:50 130 9 5.421.0
2014-Apr-19 11:20 130 10 5.421.0
2014-Apr-19 10:50 140 10 5.421.0
2014-Apr-19 10:20 130 8 5.420.0
2014-Apr-19 09:50 130 8 19.0
2014-Apr-19 09:20 140 6 19.0
2014-Apr-19 08:50 130 5 19.0
2014-Apr-19 07:50 100 4 18.0
2014-Apr-19 07:20 090 4 17.0
2014-Apr-19 06:50 070 3 16.0
2014-Apr-19 06:20 140 3 16.0
2014-Apr-19 05:50 150 5 15.0
2014-Apr-19 05:20 130 4 15.0
2014-Apr-19 04:50 160 4 5.415.0
2014-Apr-19 04:20 270 4 5.416.0
2014-Apr-19 03:50 290 5 16.0
2014-Apr-19 03:20 340 6 15.0
2014-Apr-19 02:50 320 7 15.0
2014-Apr-19 02:20 020 4 14.0
2014-Apr-19 01:50 340 3 15.0
2014-Apr-19 01:20 010 4 14.0
2014-Apr-19 00:50 15.0
2014-Apr-19 00:20 030 4 15.0
2014-Apr-18 23:50 020 3 15.0
2014-Apr-18 23:20 340 4 15.0
2014-Apr-18 22:50 340 5 15.0
2014-Apr-18 22:20 290 7 16.0
2014-Apr-18 21:50 300 5 15.0
2014-Apr-18 21:20 310 6 15.0
2014-Apr-18 20:50 290 6 16.0
2014-Apr-18 20:20 310 8 15.0
2014-Apr-18 19:50 320 6 15.0
2014-Apr-18 19:20 310 9 15.0
2014-Apr-18 18:50 310 6 15.0
2014-Apr-18 18:20 300 9 16.0
2014-Apr-18 17:50 280 9 16.0
2014-Apr-18 17:20 280 14 17.0
2014-Apr-18 16:50 280 14 18.0
2014-Apr-18 16:20 290 11 19.0
2014-Apr-18 15:50 310 12 19.0
2014-Apr-18 15:20 300 10 19.0
2014-Apr-18 14:50 310 11 5.420.0
2014-Apr-18 14:20 300 10 5.420.0
2014-Apr-18 13:50 220 6 5.420.0
2014-Apr-18 13:20 20.0
2014-Apr-18 12:50 300 7 20.0
2014-Apr-18 12:20 310 7 21.0
2014-Apr-18 11:50 310 6 20.0
2014-Apr-18 11:20 300 8 20.0